Cerro Canasta, Chile
Current Conditions -  °F | °C
As of 7:00 PM on Saturday 25 Oct 2014 (Local Time) from SCVM Reporting Station
Haze Haze  
Wind Chill: 59°   Ceiling: 700
Heat Index: 59°   Visibility: 2.5mi
Dew Point: 57°   Wind: 13mph
Humidity: 94%   Direction: 330°NNW
Pressure: 29.94"   Gusts: NA
Location:  32.48°S, 71.33°W
Report Text: SCVM 252300Z 33011KT 4000 BR BKN007 15/14 Q1014
Loading
Personal Weather Stations






























Interactive Weather Map
Tropical Storm Tracking
New forecast layout! Learn more

10-Day Weather Forecast

Advertisements
Track Severe Weather on mobile